• In Hungary
  • List of Countries
  • For 7 days
  • Water Temperature
  • Satellite Maps
  • Weather Map
  • News
  • Weather Widgets
  • user-avatar
    Login

    Hourly Weather Horodnje

    Today, 20 October, Friday

    Time Temperature Precipitation Wind Pressure Humidity
    00:00 +14°C° 0 mm 1 mps 750 mmHg 80%
    01:00 +14°C° 0 mm 1 mps 750 mmHg 81%
    02:00 +14°C° 0 mm 1 mps 750 mmHg 82%
    03:00 +14°C° 0 mm 1 mps 750 mmHg 83%
    04:00 +13°C° 0 mm 1 mps 750 mmHg 84%
    05:00 +13°C° 0 mm 1 mps 750 mmHg 86%
    06:00 +14°C° 0 mm 1 mps 750 mmHg 83%
    07:00 +14°C° 0 mm 1 mps 750 mmHg 80%
    08:00 +15°C° 0 mm 2 mps 750 mmHg 76%
    09:00 +16°C° 0 mm 2 mps 750 mmHg 70%
    10:00 +18°C° 0 mm 2 mps 750 mmHg 64%
    11:00 +19°C° 0 mm 2 mps 750 mmHg 57%
    12:00 +19°C° 0 mm 2 mps 750 mmHg 55%
    13:00 +20°C° 0 mm 2 mps 750 mmHg 53%
    14:00 +20°C° 0 mm 2 mps 750 mmHg 52%
    15:00 +18°C° 0 mm 3 mps 750 mmHg 57%
    16:00 +17°C° 0 mm 4 mps 750 mmHg 62%
    17:00 +14°C° 0 mm 4 mps 750 mmHg 68%
    18:00 +13°C° 0 mm 4 mps 750 mmHg 70%
    19:00 +12°C° 0 mm 5 mps 750 mmHg 73%
    20:00 +10°C° 0 mm 5 mps 750 mmHg 75%
    21:00 +10°C° 0 mm 5 mps 751 mmHg 75%
    22:00 +11°C° 0 mm 4 mps 751 mmHg 74%
    23:00 +10°C° 0 mm 4 mps 751 mmHg 74%

    Tomorrow, 21 October, Saturday

    Time Temperature Precipitation Wind Pressure Humidity
    00:00 +10°C° 0 mm 4 mps 751 mmHg 73%
    01:00 +10°C° 0 mm 4 mps 751 mmHg 72%
    02:00 +10°C° 0 mm 4 mps 751 mmHg 71%
    03:00 +8°C° 0 mm 4 mps 751 mmHg 69%
    04:00 +8°C° 0 mm 4 mps 751 mmHg 68%
    05:00 +8°C° 0 mm 4 mps 751 mmHg 66%
    06:00 +8°C° 0 mm 4 mps 751 mmHg 64%
    07:00 +8°C° 0 mm 4 mps 751 mmHg 62%
    08:00 +8°C° 0 mm 5 mps 752 mmHg 60%
    09:00 +9°C° 0 mm 5 mps 752 mmHg 55%
    10:00 +11°C° 0 mm 4 mps 752 mmHg 50%
    11:00 +12°C° 0 mm 4 mps 752 mmHg 45%
    12:00 +12°C° 0 mm 4 mps 751 mmHg 42%
    13:00 +12°C° 0 mm 4 mps 751 mmHg 40%
    14:00 +13°C° 0 mm 4 mps 751 mmHg 37%
    15:00 +12°C° 0 mm 4 mps 751 mmHg 39%
    16:00 +10°C° 0 mm 3 mps 751 mmHg 41%
    17:00 +9°C° 0 mm 3 mps 751 mmHg 43%
    18:00 +9°C° 0 mm 3 mps 751 mmHg 45%
    19:00 +8°C° 0 mm 3 mps 751 mmHg 46%
    20:00 +8°C° 0 mm 3 mps 751 mmHg 48%
    21:00 +7°C° 0 mm 3 mps 751 mmHg 49%
    22:00 +7°C° 0 mm 3 mps 751 mmHg 50%
    23:00 +7°C° 0 mm 3 mps 751 mmHg 51%

    Day after tomorrow, 22 October, Sunday

    Time Temperature Precipitation Wind Pressure Humidity
    00:00 +7°C° 0 mm 3 mps 751 mmHg 52%
    01:00 +7°C° 0 mm 3 mps 751 mmHg 53%
    02:00 +6°C° 0 mm 2 mps 751 mmHg 53%
    03:00 +6°C° 0 mm 2 mps 751 mmHg 54%
    04:00 +6°C° 0 mm 2 mps 751 mmHg 55%
    05:00 +6°C° 0 mm 2 mps 751 mmHg 56%
    06:00 +5°C° 0 mm 3 mps 751 mmHg 55%
    07:00 +5°C° 0 mm 3 mps 752 mmHg 53%
    08:00 +5°C° 0 mm 3 mps 752 mmHg 52%
    09:00 +8°C° 0 mm 3 mps 752 mmHg 47%
    10:00 +9°C° 0 mm 3 mps 752 mmHg 43%
    11:00 +10°C° 0 mm 3 mps 752 mmHg 38%
    12:00 +10°C° 0 mm 3 mps 752 mmHg 37%
    13:00 +10°C° 0 mm 3 mps 751 mmHg 35%
    14:00 +12°C° 0 mm 2 mps 751 mmHg 33%
    15:00 +9°C° 0 mm 2 mps 751 mmHg 36%
    16:00 +8°C° 0 mm 2 mps 752 mmHg 39%
    17:00 +7°C° 0 mm 2 mps 752 mmHg 43%
    18:00 +6°C° 0 mm 2 mps 752 mmHg 46%
    19:00 +6°C° 0 mm 2 mps 752 mmHg 48%
    20:00 +5°C° 0 mm 2 mps 753 mmHg 51%
    21:00 +4°C° 0 mm 2 mps 753 mmHg 53%
    22:00 +4°C° 0 mm 2 mps 753 mmHg 55%
    23:00 +3°C° 0 mm 2 mps 753 mmHg 56%

    23 October, Monday

    Time Temperature Precipitation Wind Pressure Humidity
    00:00 +3°C° 0 mm 2 mps 753 mmHg 57%
    01:00 +3°C° 0 mm 2 mps 753 mmHg 58%
    02:00 +3°C° 0 mm 1 mps 753 mmHg 59%
    03:00 +2°C° 0 mm 2 mps 753 mmHg 60%
    04:00 +2°C° 0 mm 2 mps 754 mmHg 61%
    05:00 +1°C° 0 mm 2 mps 754 mmHg 61%
    06:00 +2°C° 0 mm 2 mps 754 mmHg 58%
    07:00 +3°C° 0 mm 2 mps 754 mmHg 55%
    08:00 +3°C° 0 mm 2 mps 754 mmHg 52%
    09:00 +5°C° 0 mm 2 mps 754 mmHg 47%
    10:00 +6°C° 0 mm 2 mps 754 mmHg 42%
    11:00 +8°C° 0 mm 2 mps 754 mmHg 37%
    12:00 +8°C° 0 mm 2 mps 754 mmHg 35%
    13:00 +8°C° 0 mm 2 mps 754 mmHg 32%
    14:00 +9°C° 0 mm 2 mps 754 mmHg 30%
    15:00 +8°C° 0 mm 2 mps 754 mmHg 33%
    16:00 +7°C° 0 mm 2 mps 754 mmHg 35%
    17:00 +5°C° 0 mm 3 mps 754 mmHg 38%
    18:00 +4°C° 0 mm 3 mps 754 mmHg 40%
    19:00 +3°C° 0 mm 3 mps 754 mmHg 43%
    20:00 +3°C° 0 mm 3 mps 755 mmHg 45%
    21:00 +2°C° 0 mm 3 mps 755 mmHg 47%
    22:00 +2°C° 0 mm 3 mps 755 mmHg 49%
    23:00 +1°C° 0 mm 3 mps 755 mmHg 51%

    24 October, Tuesday

    Time Temperature Precipitation Wind Pressure Humidity
    00:00 +1°C° 0 mm 3 mps 755 mmHg 52%
    01:00 0°C° 0 mm 3 mps 755 mmHg 54%
    02:00 0°C° 0 mm 3 mps 755 mmHg 56%
    03:00 0°C° 0 mm 3 mps 756 mmHg 57%
    04:00 -1°C° 0 mm 3 mps 756 mmHg 59%
    05:00 -1°C° 0 mm 3 mps 756 mmHg 61%
    06:00 0°C° 0 mm 3 mps 756 mmHg 57%
    07:00 0°C° 0 mm 4 mps 757 mmHg 54%
    08:00 0°C° 0 mm 4 mps 757 mmHg 51%
    09:00 +3°C° 0 mm 4 mps 757 mmHg 46%
    10:00 +4°C° 0 mm 4 mps 757 mmHg 42%
    11:00 +6°C° 0 mm 5 mps 757 mmHg 37%
    12:00 +6°C° 0 mm 5 mps 757 mmHg 36%
    13:00 +6°C° 0 mm 5 mps 757 mmHg 34%
    14:00 +7°C° 0 mm 5 mps 757 mmHg 33%
    15:00 +6°C° 0 mm 5 mps 757 mmHg 36%
    16:00 +4°C° 0 mm 4 mps 757 mmHg 38%
    17:00 +3°C° 0 mm 4 mps 758 mmHg 41%
    18:00 +3°C° 0 mm 4 mps 758 mmHg 42%
    19:00 +1°C° 0 mm 4 mps 758 mmHg 44%
    20:00 +1°C° 0 mm 5 mps 758 mmHg 45%
    21:00 +1°C° 0 mm 5 mps 759 mmHg 47%
    22:00 0°C° 0 mm 5 mps 759 mmHg 49%
    23:00 0°C° 0 mm 5 mps 759 mmHg 51%

    25 October, Wednesday

    Time Temperature Precipitation Wind Pressure Humidity
    00:00 0°C° 0 mm 5 mps 759 mmHg 53%
    01:00 -1°C° 0 mm 5 mps 760 mmHg 55%
    02:00 -1°C° 0 mm 5 mps 760 mmHg 56%
    03:00 -1°C° 0 mm 5 mps 760 mmHg 57%
    04:00 -1°C° 0 mm 5 mps 760 mmHg 57%
    05:00 -3°C° 0 mm 6 mps 761 mmHg 58%
    06:00 -2°C° 0 mm 6 mps 761 mmHg 56%
    07:00 -2°C° 0 mm 7 mps 762 mmHg 54%
    08:00 -1°C° 0 mm 7 mps 762 mmHg 52%
    09:00 0°C° 0 mm 7 mps 762 mmHg 48%
    10:00 +2°C° 0 mm 7 mps 762 mmHg 43%
    11:00 +3°C° 0 mm 7 mps 762 mmHg 39%
    12:00 +4°C° 0 mm 7 mps 762 mmHg 38%
    13:00 +4°C° 0 mm 7 mps 762 mmHg 36%
    14:00 +4°C° 0 mm 8 mps 762 mmHg 35%
    15:00 +3°C° 0 mm 7 mps 762 mmHg 38%
    16:00 +2°C° 0 mm 6 mps 762 mmHg 41%
    17:00 +1°C° 0 mm 6 mps 763 mmHg 44%
    18:00 +1°C° 0 mm 6 mps 763 mmHg 46%
    19:00 -1°C° 0 mm 6 mps 763 mmHg 48%
    20:00 -1°C° 0 mm 6 mps 764 mmHg 50%
    21:00 -2°C° 0 mm 6 mps 764 mmHg 52%
    22:00 -2°C° 0 mm 6 mps 764 mmHg 54%
    23:00 -2°C° 0 mm 6 mps 764 mmHg 56%
    Show more